Content
SEND FEEDBACK

Daily
Averages
Monthly
Summary
United States of America

WYANDOTTE, OKLAHOMA


Home > North America > United States > Oklahoma
Elevation: 750 feet     Latitude: 36 48N     Longitude: 094 44W

WEATHER
 
SELECT A DAY
Number of Records: 341,293;   Date Range: 1/8/01 - 12/19/14
 
SHARE

PRINT THIS DATA

[ ← Previous Day ]
WEATHER ALMANAC - JANUARY 3, 2013
[ Next Day → ]
[ °C ]   °F
Weather ElementAverageHighLow
Temperature32.6 °F42.8 °F (1:35 pm)19.4 °F (7:35 am)
Dewpoint27.3 °F33.8 °F (10:35 am)19.4 °F (7:35 am)
Humidity83.2 %100 % (2:15 am)53 % (2:35 pm)
Barometer30.40 in30.46 in (10:15 am)30.28 in (12:55 am)
Wind Speed0.9 mph10.4 mph (8:15 pm)
Weather ElementAverage
Visibility8.1 mi
Wind DirectionNE (50.6 °)

Weather ElementTotal
Precipitation---
Heating Degree Days33.9 (Base 65)
Averaged from 69 records on January 3, 2013
WEATHER CONDITIONS BREAKOUT
WIND DIRECTION BREAKOUT
WEATHER BY HOUR - JANUARY 3, 2013
[ °C ]   °F
Local TimeTemperatureDewpointHumidityBarometerVisibilityWind DirectionWind SpeedGust SpeedPrecipitationEventsConditions
12:35 AM28.4 °F26.6 °F93 %30.29 in10.0 miNNW (330°)4.6 mphClear
12:55 AM28.4 °F26.6 °F93 %30.28 in10.0 miCalmClear
1:15 AM28.4 °F26.6 °F93 %30.29 in10.0 miCalmClear
1:55 AM26.6 °F24.8 °F93 %30.31 in7.0 miCalmClear
2:15 AM24.8 °F24.8 °F100 %30.32 in7.0 miCalmClear
2:35 AM23.0 °F23.0 °F100 %30.33 in7.0 miCalmClear
2:55 AM26.6 °F26.6 °F100 %30.33 in7.0 miCalmClear
3:15 AM24.8 °F24.8 °F100 %30.35 in7.0 miCalmClear
3:35 AM23.0 °F23.0 °F100 %30.35 in7.0 miCalmClear
3:55 AM24.8 °F24.8 °F100 %30.35 in5.0 miCalmClear
4:15 AM23.0 °F23.0 °F100 %30.35 in5.0 miCalmMostly Cloudy
4:35 AM26.6 °F26.6 °F100 %30.35 in5.0 miCalmOvercast
4:55 AM26.6 °F26.6 °F100 %30.36 in5.0 miCalmOvercast
5:15 AM26.6 °F26.6 °F100 %30.37 in7.0 miCalmScattered Clouds
5:35 AM24.8 °F24.8 °F100 %30.37 in5.0 miCalmClear
5:55 AM23.0 °F23.0 °F100 %30.38 in5.0 miCalmClear
6:15 AM23.0 °F23.0 °F100 %30.38 in4.0 miCalmClear
6:35 AM23.0 °F23.0 °F100 %30.39 in4.0 miCalmClear
6:55 AM23.0 °F23.0 °F100 %30.39 in4.0 miCalmClear
7:15 AM23.0 °F23.0 °F100 %30.40 in4.0 miCalmClear
7:35 AM19.4 °F19.4 °F100 %30.40 in3.0 miCalmClear
7:55 AM21.2 °F21.2 °F100 %30.40 in3.0 miCalmClear
8:15 AM23.0 °F23.0 °F100 %30.41 in4.0 miCalmClear
8:35 AM26.6 °F26.6 °F100 %30.42 in4.0 miCalmMostly Cloudy
8:55 AM26.6 °F26.6 °F100 %30.43 in4.0 miCalmMostly Cloudy
9:35 AM30.2 °F30.2 °F100 %30.44 in3.0 miCalmClear
9:55 AM32.0 °F32.0 °F100 %30.45 in3.0 miCalmScattered Clouds
10:15 AM32.0 °F32.0 °F100 %30.46 in5.0 miCalmMostly Cloudy
10:35 AM33.8 °F33.8 °F100 %30.46 in7.0 miCalmClear
10:55 AM33.8 °F33.8 °F100 %30.46 in10.0 miCalmClear
11:15 AM35.6 °F32.0 °F87 %30.45 in10.0 miCalmClear
11:35 AM37.4 °F32.0 °F81 %30.45 in10.0 miCalmClear
11:55 AM39.2 °F32.0 °F75 %30.44 in10.0 miCalmClear
12:15 PM39.2 °F30.2 °F70 %30.43 in10.0 miCalmClear
12:35 PM41.0 °F28.4 °F61 %30.42 in10.0 miCalmClear
12:55 PM41.0 °F28.4 °F61 %30.40 in10.0 miCalmClear
1:15 PM41.0 °F26.6 °F57 %30.40 in10.0 miCalmClear
1:35 PM42.8 °F28.4 °F57 %30.40 in10.0 miNW (310°)6.9 mphClear
1:55 PM42.8 °F28.4 °F57 %30.39 in10.0 miNNW (340°)3.5 mphClear
2:15 PM42.8 °F28.4 °F57 %30.39 in10.0 miWest (280°)3.5 mphClear
2:35 PM42.8 °F26.6 °F53 %30.39 in10.0 miCalmClear
2:55 PM42.8 °F26.6 °F53 %30.39 in10.0 miCalmClear
3:15 PM42.8 °F26.6 °F53 %30.40 in10.0 miWest (260°)4.6 mphClear
3:35 PM42.8 °F26.6 °F53 %30.40 in10.0 miWest (280°)4.6 mphClear
3:55 PM42.8 °F26.6 °F53 %30.40 in10.0 miNW (320°)3.5 mphClear
4:15 PM42.8 °F26.6 °F53 %30.41 in10.0 miCalmClear
4:35 PM41.0 °F26.6 °F57 %30.41 in10.0 miCalmClear
4:55 PM41.0 °F26.6 °F57 %30.41 in10.0 miCalmScattered Clouds
5:15 PM37.4 °F26.6 °F65 %30.41 in10.0 miCalmScattered Clouds
5:35 PM35.6 °F26.6 °F70 %30.42 in10.0 miCalmClear
5:55 PM35.6 °F28.4 °F75 %30.42 in10.0 miCalmMostly Cloudy
6:15 PM35.6 °F26.6 °F70 %30.42 in10.0 miCalmOvercast
6:35 PM33.8 °F28.4 °F81 %30.42 in10.0 miCalmOvercast
6:55 PM33.8 °F28.4 °F81 %30.42 in10.0 miCalmOvercast
7:15 PM33.8 °F28.4 °F81 %30.42 in10.0 miCalmOvercast
7:35 PM33.8 °F30.2 °F87 %30.43 in10.0 miCalmOvercast
7:55 PM37.4 °F30.2 °F75 %30.43 in10.0 miNNW (340°)8.1 mphOvercast
8:15 PM35.6 °F30.2 °F81 %30.44 in10.0 miNNW (340°)10.4 mphOvercast
8:35 PM35.6 °F30.2 °F81 %30.44 in10.0 miNNW (340°)5.8 mphOvercast
8:55 PM35.6 °F30.2 °F81 %30.44 in10.0 miNorth (350°)4.6 mphOvercast
9:15 PM35.6 °F30.2 °F81 %30.44 in10.0 miCalmOvercast
9:35 PM35.6 °F30.2 °F81 %30.44 in10.0 miCalmOvercast
9:55 PM35.6 °F28.4 °F75 %30.44 in10.0 miCalmOvercast
10:15 PM35.6 °F28.4 °F75 %30.45 in10.0 miCalmOvercast
10:35 PM33.8 °F30.2 °F87 %30.45 in10.0 miCalmOvercast
10:55 PM33.8 °F30.2 °F87 %30.45 in10.0 miCalmMostly Cloudy
11:15 PM32.0 °F28.4 °F87 %30.46 in10.0 miCalmScattered Clouds
11:35 PM32.0 °F28.4 °F87 %30.46 in10.0 miCalmClear
11:55 PM30.2 °F26.6 °F86 %30.46 in10.0 miCalmClear
Hourly data recorded from KGMJ, located miles away from Wyandotte, Oklahoma







STORIES FROM OUR PARTNERS